Weather History for LKCV - March, 2013

Change the Weather History Date:

Thursday, March 21, 2013

  Actual Average Record
Temperature  
Mean Temperature 36 °F -  
Max Temperature 41 °F - - ()
Min Temperature 30 °F - - ()
Degree Days  
Heating Degree Days 30    
Moisture  
Dew Point 32 °F    
Average Humidity 88    
Maximum Humidity 100    
Minimum Humidity 75    
Precipitation  
Precipitation 0.00 in - - ()
Sea Level Pressure  
Sea Level Pressure 29.90 in    
Wind  
Wind Speed 8 mph ()    
Max Wind Speed 22 mph    
Max Gust Speed 31 mph    
Visibility 5.8 miles    
Events Rain , Snow    
T = Trace of Precipitation, MM = Missing Value Source: Averaged Metar Reports

Daily Weather History Graph

Daily Weather History Graph

Search for Another Location

Airport or City:

Trip Planner

Search our weather history database for the weather conditions in past years. The results will help you decide how hot, cold, wet, or windy it might be!

Date:

Astronomy

Mar. 21, 2013 Rise Set
Actual Time 5:59 AM CET 6:13 PM CET
Civil Twilight 5:26 AM CET 6:45 PM CET
Nautical Twilight 4:48 AM CET 7:23 PM CET
Astronomical Twilight 4:09 AM CET 8:03 PM CET
Moon 11:57 AM CET (3/21) 2:38 AM CET (3/21)
Length of Visible Light 13h 18m
Length of Day
12h 13m
Waxing Gibbous, 66% of the Moon is Illuminated
Mar 21
Waxing Gibbous
Mar 27
Full
Apr 3
Last Quarter
Apr 10
New
Apr 18
First Quarter

Hourly Weather History & Observations

Time (CET) Temp. Windchill Dew Point Humidity Pressure Visibility Wind Dir Wind Speed Gust Speed Precip Events Conditions
12:00 AM 41.0 °F - 37.4 °F 87% 29.77 in 6.2 mi South 1.2 mph - N/A   Mostly Cloudy
1:00 AM 37.4 °F 32.8 °F 37.4 °F 100% 29.77 in - SW 5.8 mph - N/A   Clear
2:00 AM 37.4 °F 34.9 °F 35.6 °F 93% 29.77 in - South 3.5 mph - N/A   Clear
3:00 AM 37.4 °F 34.9 °F 35.6 °F 93% 29.77 in - SSW 3.5 mph - N/A   Clear
4:00 AM 37.4 °F - 35.6 °F 93% 29.77 in - Variable 2.3 mph - N/A   Clear
5:00 AM 37.4 °F - 35.6 °F 93% 29.80 in - Variable 1.2 mph - N/A   Clear
6:00 AM 37.4 °F 32.8 °F 35.6 °F 93% 29.80 in 6.2 mi SSW 5.8 mph - N/A   Mostly Cloudy
7:00 AM 37.4 °F 34.9 °F 35.6 °F 93% 29.80 in 6.2 mi WSW 3.5 mph - N/A   Mostly Cloudy
8:00 AM 39.2 °F 33.6 °F 35.6 °F 87% 29.83 in 6.2 mi West 8.1 mph - N/A   Mostly Cloudy
9:00 AM 39.2 °F 32.0 °F 35.6 °F 87% 29.83 in 6.2 mi West 11.5 mph - N/A   Mostly Cloudy
10:00 AM 35.6 °F 24.5 °F 35.6 °F 100% 29.86 in 5.0 mi WNW 20.7 mph 31.1 mph N/A Rain Light Rain
10:11 AM 33.8 °F 21.9 °F 33.8 °F 100% 29.89 in 2.8 mi WNW 21.9 mph - N/A Rain , Snow Light Rain
10:50 AM 33.8 °F 22.5 °F 33.8 °F 100% 29.89 in 3.7 mi WNW 19.6 mph - N/A Snow Light Snow
11:00 AM 33.8 °F 22.2 °F 33.8 °F 100% 29.89 in 3.7 mi WNW 20.7 mph - N/A Snow Light Snow
12:00 PM 33.8 °F 23.2 °F 32.0 °F 93% 29.92 in 6.2 mi WNW 17.3 mph - N/A Snow Light Snow
12:14 PM 33.8 °F 23.5 °F 32.0 °F 93% 29.95 in 6.2 mi NW 16.1 mph - N/A   Overcast
1:00 PM 33.8 °F 23.9 °F 30.2 °F 87% 29.95 in 6.2 mi WNW 15.0 mph - N/A   Overcast
2:00 PM 35.6 °F 26.6 °F 30.2 °F 81% 29.98 in 6.2 mi WNW 13.8 mph - N/A   Overcast
3:00 PM 35.6 °F 25.9 °F 28.4 °F 75% 29.98 in 6.2 mi WNW 16.1 mph - N/A   Mostly Cloudy
4:00 PM 33.8 °F 24.8 °F 26.6 °F 75% 29.98 in 6.2 mi NW 12.7 mph - N/A Snow Light Snow
5:00 PM 33.8 °F 24.3 °F 26.6 °F 75% 29.98 in 6.2 mi NNW 13.8 mph - N/A   Mostly Cloudy
6:00 PM 32.0 °F 21.6 °F 24.8 °F 75% 30.01 in 6.2 mi NW 15.0 mph - N/A   Mostly Cloudy
7:00 PM 32.0 °F 23.0 °F 24.8 °F 75% 30.04 in 6.2 mi NW 11.5 mph - N/A   Mostly Cloudy
8:11 PM 32.0 °F 23.6 °F 24.8 °F 75% 30.04 in 6.2 mi NW 10.4 mph - N/A   Mostly Cloudy
9:00 PM 32.0 °F 24.2 °F 24.8 °F 75% 30.04 in 6.2 mi NW 9.2 mph - N/A   Mostly Cloudy
10:00 PM 30.2 °F 22.6 °F 26.6 °F 86% 30.04 in 6.2 mi NW 8.1 mph - N/A   Overcast
11:00 PM 30.2 °F 21.9 °F 26.6 °F 86% 30.04 in 6.2 mi WNW 9.2 mph - N/A   Overcast